User: anonymous   Login
Location: Great Northern Moose Lodge
(44.6765°N, 71.1811°W)
Time: 06:39:30
(UTC-04:00)
Language:

Terra - Orbit

View from above orbital plane
View from above orbital plane
View from above satellite
View from above satellite

Ground track
Ground track

The orbit data is extracted from the following two-line orbital elements,

1 25994U 99068A   17178.77998674 -.00000036 +00000-0 +19894-5 0  9998
2 25994 098.2087 253.6764 0001112 079.5158 280.6165 14.57114263932217
Epoch (UTC): 27 June 2017 18:43:10
Eccentricity: 0.0001112
inclination: 98.2087°
perigee height: 702 km
apogee height: 703 km
right ascension of ascending node: 253.6764°
argument of perigee: 79.5158°
revolutions per day: 14.57114263
mean anomaly at epoch: 280.6165°
orbit number at epoch: 93221

The dashed part of the orbit path shows where the satellite is in the earth's shadow,  

DLR